This demonstration page uses our WeatherBlox Daily Observations layout. Learn more.

Hourly Observations for December 14, 2016

Temp ( °F °C ) Dew Point ( °F °C ) Humidity (%) Winds ( mph kmh ) Pressure ( in mb ) Visibility ( mi km ) Precip ( " mm )
12:15 am 00:15 Clear 13 -10.5 4 -15.5 67 67 S 8 13 30.33 1027 10 16.0934 0 0
12:35 am 00:35 Clear 15 -9.7 4 -15.4 63 63 S 12 19 30.3 1026 10 16.0934 0 0
12:55 am 00:55 Clear 14 -10.1 4 -15.5 65 65 Calm 30.33 1027 10 16.0934 0 0
1:15 am 01:15 Clear 9 -12.6 3 -16.3 74 74 SE 3 6 30.33 1027 10 16.0934 0 0
1:35 am 01:35 Clear 11 -11.8 3 -15.9 72 72 Calm 30.36 1028 10 16.0934 0 0
1:55 am 01:55 Clear 13 -10.6 4 -15.7 66 66 S 3 6 30.33 1027 10 16.0934 0 0
2:15 am 02:15 Clear 13 -10.4 4 -15.7 65 65 S 5 7 30.3 1026 10 16.0934 0 0
2:35 am 02:35 Clear 13 -10.5 4 -15.7 66 66 Calm 30.33 1027 10 16.0934 0 0
2:55 am 02:55 Clear 12 -11.2 4 -15.8 69 69 NNW 7 11 30.36 1028 10 16.0934 0 0
3:15 am 03:15 Clear 10 -12 3 -16.1 72 72 N 6 9 30.36 1028 10 16.0934 0 0
3:35 am 03:35 Clear 9 -13 3 -16.3 77 77 N 7 11 30.36 1028 10 16.0934 0 0
3:55 am 03:55 Clear 6 -14.2 1 -17.5 76 76 NNE 6 9 30.42 1030 10 16.0934 0 0
4:15 am 04:15 Clear 7 -14.1 1 -17.1 78 78 NNE 6 9 30.42 1030 10 16.0934 0 0
4:35 am 04:35 Clear 6 -14.3 1 -17.3 78 78 NNE 7 11 30.42 1030 10 16.0934 0 0
4:55 am 04:55 Clear 8 -13.6 2 -16.5 79 79 N 10 17 30.45 1031 10 16.0934 0 0
5:15 am 05:15 Clear 10 -12.2 4 -15.7 75 75 N 9 15 30.42 1030 10 16.0934 0 0
5:35 am 05:35 Clear 10 -12 4 -15.6 75 75 N 9 15 30.42 1030 10 16.0934 0 0
5:55 am 05:55 Clear 12 -11.1 6 -14.6 76 76 N 10 17 30.45 1031 10 16.0934 0 0
6:15 am 06:15 Clear 14 -10.1 7 -13.7 75 75 NNE 14 22 30.42 1030 10 16.0934 0 0
6:35 am 06:35 Clear 14 -10.1 7 -13.7 75 75 N 13 20 30.48 1032 10 16.0934 0 0
6:55 am 06:55 Clear 13 -10.4 7 -13.9 76 76 N 9 15 30.48 1032 10 16.0934 0 0
7:15 am 07:15 Clear 13 -10.7 7 -14 77 77 N 8 13 30.5 1033 10 16.0934 0 0
7:35 am 07:35 Clear 12 -11.2 6 -14.4 77 77 N 9 15 30.5 1033 10 16.0934 0 0
7:55 am 07:55 Sunny 12 -10.9 7 -14.1 78 78 N 12 19 30.5 1033 10 16.0934 0 0
8:15 am 08:15 Sunny 13 -10.5 6 -14.2 75 75 N 9 15 30.5 1033 10 16.0934 0 0
8:35 am 08:35 Partly Cloudy 15 -9.5 7 -13.7 72 72 N 10 17 30.53 1034 10 16.0934 0 0
8:50 am 08:50 Mostly Cloudy 16 -8.7 8 -13.5 69 69 N 12 19 30.5 1033 10 16.0934 0 0
9:15 am 09:15 Mostly Cloudy 18 -7.9 7 -13.7 63 63 N 14 22 30.5 1033 10 16.0934 0 0
9:35 am 09:35 Partly Cloudy 19 -7.5 6 -14.6 57 57 NNE 12 19 30.53 1034 10 16.0934 0 0
9:55 am 09:55 Partly Cloudy 19 -7.1 4 -15.3 52 52 N 17 28 30.53 1034 10 16.0934 0 0
10:15 am 10:15 Partly Cloudy 20 -6.6 4 -15.5 50 50 N 10 17 30.53 1034 10 16.0934 0 0
10:35 am 10:35 Sunny 22 -5.7 4 -15.8 45 45 N 14 22 30.53 1034 10 16.0934 0 0
10:55 am 10:55 Sunny 23 -5.2 2 -16.6 41 41 N 16 26 30.53 1034 10 16.0934 0 0
11:15 am 11:15 Sunny 23 -5.1 -1 -18.5 34 34 N 16 26 30.53 1034 10 16.0934 0 0
11:35 am 11:35 Sunny 24 -4.5 -4 -19.9 29 29 N 21 33 30.53 1034 10 16.0934 0 0
11:55 am 11:55 Sunny 23 -5 -4 -20.1 30 30 N 17 28 30.53 1034 10 16.0934 0 0
12:15 pm 12:15 Sunny 23 -5 -5 -20.7 28 28 N 14 22 30.53 1034 10 16.0934 0 0
12:35 pm 12:35 Sunny 24 -4.6 -6 -21 27 27 N 15 24 30.53 1034 10 16.0934 0 0
12:55 pm 12:55 Sunny 24 -4.4 -6 -21.2 26 26 NNW 10 17 30.5 1033 10 16.0934 0 0
1:15 pm 13:15 Partly Cloudy 24 -4.4 -6 -21.1 26 26 N 9 15 30.5 1033 10 16.0934 0 0
1:35 pm 13:35 Partly Cloudy 24 -4.2 -7 -21.4 25 25 N 12 19 30.5 1033 10 16.0934 0 0
1:55 pm 13:55 Partly Cloudy 25 -4.1 -7 -21.5 25 25 N 9 15 30.5 1033 10 16.0934 0 0
2:15 pm 14:15 Partly Cloudy 24 -4.3 -7 -21.5 25 25 NNW 9 15 30.5 1033 10 16.0934 0 0
2:35 pm 14:35 Partly Cloudy 24 -4.2 -6 -21.2 25 25 NNW 6 9 30.5 1033 10 16.0934 0 0
2:55 pm 14:55 Partly Cloudy 24 -4.3 -6 -21.2 26 26 N 7 11 30.5 1033 10 16.0934 0 0
3:15 pm 15:15 Partly Cloudy 24 -4.3 -6 -21.1 26 26 NNW 8 13 30.5 1033 10 16.0934 0 0
3:35 pm 15:35 Partly Cloudy 24 -4.2 -6 -21.1 26 26 NNW 7 11 30.5 1033 10 16.0934 0 0
3:55 pm 15:55 Mostly Cloudy 24 -4.3 -6 -21.1 26 26 NW 3 6 30.5 1033 10 16.0934 0 0
4:15 pm 16:15 Mostly Cloudy 24 -4.2 -6 -21.1 26 26 NW 3 6 30.5 1033 10 16.0934 0 0
4:35 pm 16:35 Mostly Cloudy 24 -4.3 -5 -20.8 27 27 NW 6 9 30.5 1033 10 16.0934 0 0
4:55 pm 16:55 Mostly Cloudy 24 -4.3 -5 -20.5 27 27 WNW 6 9 30.5 1033 10 16.0934 0 0
5:15 pm 17:15 Mostly Cloudy 24 -4.6 -4 -20.2 29 29 WNW 6 9 30.5 1033 10 16.0934 0 0
5:35 pm 17:35 Partly Cloudy 23 -5 -4 -19.8 31 31 NW 3 6 30.5 1033 10 16.0934 0 0
5:55 pm 17:55 Mostly Cloudy 22 -5.3 -2 -18.8 34 34 W 6 9 30.5 1033 10 16.0934 0 0
6:15 pm 18:15 Partly Cloudy 23 -5 -2 -18.8 33 33 WNW 3 6 30.5 1033 10 16.0934 0 0
6:35 pm 18:35 Partly Cloudy 23 -5.2 -1 -18.5 35 35 Calm 30.5 1033 10 16.0934 0 0
6:55 pm 18:55 Partly Cloudy 22 -5.5 -1 -18.2 36 36 Calm 30.5 1033 10 16.0934 0 0
7:15 pm 19:15 Partly Cloudy 22 -5.3 -1 -18.4 35 35 Calm 30.5 1033 10 16.0934 0 0
7:35 pm 19:35 Cloudy 22 -5.5 1 -17 40 40 Calm 30.5 1033 10 16.0934 0 0
7:55 pm 19:55 Cloudy 21 -6 2 -16.8 43 43 Calm 30.5 1033 10 16.0934 0 0
8:15 pm 20:15 Cloudy 20 -6.7 2 -16.5 46 46 Calm 30.53 1034 10 16.0934 0 0
8:35 pm 20:35 Cloudy 20 -6.7 3 -15.9 48 48 Calm 30.53 1034 10 16.0934 0 0
8:55 pm 20:55 Cloudy 20 -6.5 4 -15.6 49 49 Calm 30.53 1034 10 16.0934 0 0
9:15 pm 21:15 Cloudy 21 -6.2 3 -16 46 46 E 5 7 30.5 1033 10 16.0934 0 0
9:35 pm 21:35 Mostly Cloudy 20 -6.6 1 -17.3 43 43 SE 3 6 30.56 1035 10 16.0934 0 0
9:55 pm 21:55 Partly Cloudy 20 -6.8 1 -17.4 43 43 S 3 6 30.56 1035 10 16.0934 0 0
10:15 pm 22:15 Clear 19 -7.5 0 -18 43 43 S 3 6 30.56 1035 10 16.0934 0 0
10:35 pm 22:35 Partly Cloudy 18 -8 2 -16.7 50 50 SSW 5 7 30.56 1035 10 16.0934 0 0
10:55 pm 22:55 Partly Cloudy 17 -8.1 1 -17.1 49 49 Calm 30.56 1035 10 16.0934 0 0
11:15 pm 23:15 Clear 17 -8.3 1 -17.2 49 49 Calm 30.56 1035 10 16.0934 0 0
11:35 pm 23:35 Clear 16 -8.9 2 -16.7 54 54 Calm 30.56 1035 10 16.0934 0 0
11:55 pm 23:55 Partly Cloudy 17 -8.5 2 -16.4 53 53 SSE 3 6 30.56 1035 10 16.0934 0 0

Powered by AerisWeather